DW6794 Weather Reports


Display with metric or nautical units.
time (UTC)temp
F
wind
direction
speed
MPH
gust
MPH
rain 1hr
in
rain 24hr
in
rain mn
in
humidity
%
barometer
mb
20170221155416 64 196 1.0 6.0 0.00 0.00 0.00 64 1015.9
20170221154415 64 160 3.0 9.0 0.00 0.00 0.00 65 1015.9
20170221145416 58 355 2.0 6.0 0.00 0.00 0.00 76 1016.1
20170221140416 48 161 0.0 0.0 0.00 0.00 0.00 81 1016.8
20170221133415 42 116 0.0 0.0 0.00 0.00 0.00 81 1017.1
20170221124415 37 115 0.0 0.0 0.00 0.00 0.00 80 1017.8
20170221123416 37 115 0.0 0.0 0.00 0.00 0.00 80 1017.6
20170221120416 38 123 0.0 0.0 0.00 0.00 0.00 80 1017.8
20170221113416 38 119 0.0 0.0 0.00 0.00 0.00 80 1017.8
20170221111416 39 118 0.0 0.0 0.00 0.00 0.00 79 1017.7
20170221101416 39 118 0.0 0.0 0.00 0.00 0.00 78 1017.4
20170221100416 40 118 0.0 0.0 0.00 0.00 0.00 78 1017.3
20170221094417 40 118 0.0 0.0 0.00 0.00 0.00 78 1017.3
20170221083417 40 119 0.0 0.0 0.00 0.00 0.00 77 1017.4
20170221071417 40 118 0.0 0.0 0.00 0.00 0.00 75 1017.3
20170221063417 41 118 0.0 0.0 0.00 0.00 0.00 74 1017.5
20170221053417 42 119 0.0 0.0 0.00 0.00 0.00 73 1017.5
20170221044417 43 118 0.0 0.0 0.00 0.00 0.00 72 1017.5
20170221025418 44 119 0.0 0.0 0.00 0.00 0.00 69 1018.2
20170221022418 44 119 0.0 0.0 0.00 0.00 0.00 67 1018.5
20170221021418 44 119 0.0 0.0 0.00 0.00 0.00 67 1018.4
20170221012418 46 118 0.0 0.0 0.00 0.00 0.00 62 1017.9
20170221005417 48 118 0.0 0.0 0.00 0.00 0.00 59 1017.7
20170221001419 51 118 0.0 0.0 0.00 0.00 0.00 57 1017.8
20170221000418 53 118 0.0 0.0 0.00 0.00 0.00 57 1017.7
20170220224419 68 118 0.0 0.0 0.00 0.00 0.00 50 1017.3
20170220223418 68 119 0.0 0.0 0.00 0.00 0.00 50 1017.3
20170220220418 69 119 0.0 0.0 0.00 0.00 0.00 48 1017.4
20170220201418 69 40 0.0 0.0 0.00 0.00 0.00 54 1018.0
20170220195419 68 120 0.0 0.0 0.00 0.00 0.00 56 1018.0
20170220184419 66 67 0.0 1.0 0.00 0.00 0.00 65 1018.6
20170220172419 62 68 2.0 7.0 0.00 0.00 0.00 69 1019.7
20170220170418 61 58 1.0 7.0 0.00 0.00 0.00 73 1020.2